#timestamp,LO_Frequency,Hit,StdDev 
1636765215.0,286047002.5,N
1636765215.9,286047002.5,N
1636765235.8,286047001.8,N
1636765255.6,286047002.0,N
1636765275.4,286047001.9,N
1636765295.3,286047002.6,N
1636765315.1,286047002.8,N
1636765335.9,286046999.7,N
1636765355.7,286047000.9,N
1636765375.5,286047000.3,N
1636765395.4,286047002.8,N
1636765415.2,286046999.7,N
1636765435.1,286047001.1,N
1636765436.0,286047001.1,N
1636765455.8,286046998.2,N
1636765475.6,286046998.8,N
1636765495.5,286046998.2,N
1636765515.3,286046998.7,N
1636765535.1,286046998.7,N
1636765555.9,286046998.7,N
1636765575.7,286046999.3,N
1636765595.6,286046999.3,N
1636765615.4,286046999.6,N
1636765635.2,286046996.6,N
1636765655.1,286046997.4,N
1636765656.0,286046997.4,N
1636765675.8,286046997.5,N
1636765695.7,286046995.3,N
1636765715.5,286046995.6,N
1636765735.3,286046995.4,N
1636765755.2,286046996.2,N
1636765775.0,286046996.2,N
1636765775.9,286046996.2,N
1636765795.7,286046996.8,N
1636765815.6,286046997.3,N
1636765835.4,286046996.7,N
1636765855.3,286046999.6,N
1636765875.1,286046999.5,N
1636765876.0,286046999.5,N
1636765895.8,286046998.9,N
1636765915.7,286046999.2,N
1636765935.5,286046996.6,N
1636765955.3,286046997.8,N
1636765975.2,286046996.7,N
1636765995.0,286046995.0,Y
1636765995.9,286046995.0,P
1636766015.8,286046997.1,N
1636766035.6,286046997.3,N
1636766055.4,286046997.3,N
1636766075.3,286046999.6,N
1636766095.1,286046999.2,N
1636766115.9,286046996.6,N
1636766135.7,286046996.7,N
1636766155.5,286046997.3,N
1636766175.4,286046997.7,N
1636766195.2,286046999.3,N
1636766215.1,286046996.9,N
1636766216.0,286046996.9,N
1636766235.8,286046999.2,N
1636766255.6,286046999.5,N
1636766275.5,286046998.4,N
1636766295.3,286046999.0,N
1636766315.1,286046996.9,N
1636766335.9,286046996.5,N
1636766355.7,286046997.2,N
1636766375.6,286046995.0,Y
1636766395.4,286046996.6,P
1636766415.2,286046999.5,N
1636766435.1,286046996.6,N
1636766436.0,286046996.6,N
1636766455.8,286046997.8,N
1636766475.6,286046997.7,N
1636766495.5,286046999.6,N
1636766515.3,286046999.2,N
1636766535.2,286046999.2,N
1636766555.9,286046998.9,N
1636766575.7,286046998.4,N
1636766595.6,286046998.2,N
1636766615.4,286046998.1,N
1636766635.2,286046998.6,N
1636766655.1,286047000.8,N
1636766656.0,286047000.8,N
1636766675.8,286046998.2,N
1636766695.7,286046999.5,N
1636766715.5,286046998.7,N
1636766735.3,286046999.6,N
1636766755.2,286046999.2,N
1636766775.0,286046998.7,N
1636766775.9,286046998.7,N
1636766795.7,286046996.9,N
1636766815.6,286046996.6,Y
1636766835.4,286047000.8,P
1636766855.3,286047000.4,N
1636766875.1,286047000.7,N
1636766895.8,286047000.5,N
1636766915.7,286047000.0,N
1636766935.5,286047000.8,N
1636766955.3,286046998.6,N
1636766975.2,286047000.7,N
1636766995.0,286046998.4,N
1636766995.9,286046998.4,N
1636767015.8,286046998.2,N
1636767035.6,286047000.0,N
1636767055.4,286047000.7,N
1636767075.3,286047000.9,N
1636767095.1,286046998.8,N
1636767115.9,286046998.2,N
1636767135.7,286046998.5,N
1636767155.5,286046998.7,N
1636767175.4,286046999.5,N
1636767195.2,286046999.6,N
1636767215.0,286046998.7,N
1636767215.9,286046998.7,N
1636767235.8,286046998.3,N
1636767255.6,286046998.8,N
1636767275.5,286046998.7,N
1636767295.3,286046998.1,N
1636767315.1,286047000.0,N
1636767335.9,286047000.0,N
1636767355.7,286047000.9,N
1636767375.5,286047000.6,N
1636767395.4,286047000.0,N
1636767415.2,286047000.5,N
1636767435.1,286047002.7,N
1636767436.0,286047002.7,N
1636767455.8,286046999.7,N
1636767475.6,286047000.7,N
1636767495.5,286047001.1,N
1636767515.3,286047001.1,N
1636767535.2,286046998.2,N
1636767555.9,286047001.2,N
1636767575.7,286046998.2,N
1636767595.6,286046998.8,N
1636767615.4,286046998.3,N
1636767635.2,286046998.7,N
1636767655.1,286046997.0,N
1636767656.0,286046997.0,N
1636767675.8,286046999.0,N
1636767695.7,286046998.9,N
1636767715.5,286046998.9,N
1636767735.3,286046997.0,N
1636767755.2,286046999.2,N
1636767775.0,286046997.4,N
1636767775.9,286046997.4,N
1636767795.8,286046996.4,N
1636767815.6,286046995.5,N
1636767835.4,286046995.2,N
1636767855.3,286046995.0,N
1636767875.1,286046997.9,N
1636767895.8,286046995.3,N
1636767915.7,286046994.9,N
1636767935.5,286046996.7,N
1636767955.4,286046999.3,N
1636767975.2,286046997.0,N
1636767995.0,286046996.6,N
1636767995.9,286046996.6,N
1636768015.8,286046996.9,N
1636768035.6,286046997.2,N
1636768055.4,286046997.3,N
1636768075.3,286046999.2,N
1636768095.1,286046999.4,N
1636768115.9,286046998.9,N
1636768135.7,286046998.8,N
1636768155.5,286046998.9,N
1636768175.4,286046998.2,N
1636768195.2,286047000.6,N
1636768215.0,286047000.3,N
1636768216.0,286047000.3,N
1636768235.8,286046999.8,N
1636768255.6,286047002.2,N
1636768275.5,286046999.8,N
1636768295.3,286046998.5,N
1636768315.1,286047000.7,N
1636768335.9,286047001.2,N
1636768355.7,286046998.3,N
1636768375.6,286046999.3,N
1636768395.4,286046999.5,N
1636768415.2,286046999.2,N
1636768435.1,286046999.5,N
1636768436.0,286046999.5,N
1636768455.8,286046999.0,N
1636768475.6,286046999.2,N
1636768495.5,286046995.7,Y
1636768515.3,286046996.8,P
1636768535.2,286046997.4,N
1636768555.9,286046996.8,P
1636768575.7,286046996.9,Y
1636768595.6,286047002.8,P
1636768615.4,286047002.5,N
1636768635.3,286047002.6,N
1636768655.1,286047003.9,N
1636768656.0,286047003.9,N
1636768675.8,286047003.8,N
1636768695.7,286047005.8,N
1636768715.5,286047003.9,N
1636768735.3,286047003.0,N
1636768755.2,286047003.3,N
1636768775.0,286047005.5,N
1636768806.0,286047006.0,E
